Regional Weather Roundup
Issued by NWS Cleveland, OH

Home | Current Version | Previous Version | Graphics & Text | Print | Product List | Glossary On
Versions: 1 2 3 4 5 6 7 8 9 10 11 12 13 14 15 16 17 18 19 20 21 22 23 24 25 26 27 28 29 30 31 32 33 34 35 36 37 38 39 40 41 42 43 44 45 46 47 48 49 50
000
ASUS41 KCLE 240502
RWRCLE
OHIO REGIONAL WEATHER ROUNDUP
NATIONAL WEATHER SERVICE CLEVELAND, OH
100 AM EDT WED SEP 24 2014

NOTE: "FAIR" INDICATES FEW OR NO CLOUDS BELOW 12,000 FEET WITH NO
SIGNIFICANT WEATHER AND/OR OBSTRUCTIONS TO VISIBILITY.

OHZ001>008-015>018-024>027-034-035-043-044-240600-
   NORTHWEST OHIO

CITY           SKY/WX    TMP DP  RH WIND       PRES   REMARKS
DEFIANCE       CLEAR    N/A N/A N/A E5        30.36S
FINDLAY        CLEAR     54  49  83 E7        30.35R
TOLEDO EXPRESS CLEAR     50  49  96 CALM      30.36S
TOLEDO EXEC    CLEAR     53  48  83 SE3         N/A
LIMA           CLEAR     51  45  79 E7        30.35S
$$

OHZ009>014-019>023-028>033-038-089-240600-
   NORTHEAST OHIO

CITY           SKY/WX    TMP DP  RH WIND       PRES   REMARKS
CLE-HOPKINS    CLEAR     53  49  86 SE3       30.40R
CLE-LAKEFRONT  CLEAR     56  50  80 SE5       30.37S
CUY CO. ARPT   NOT AVBL
LORAIN-ELYRIA  CLEAR     53  48  83 CALM      30.38S
ASHTABULA      CLEAR     49  48  97 E3        30.41R
AKRON-CANTON   CLEAR     53  49  86 NE3       30.39R
WOOSTER        CLEAR     49  46  90 CALM      30.39S
MANSFIELD      CLEAR     51  47  86 E5        30.38R
YOUNGSTOWN     CLEAR     49  47  93 E6        30.39S
$$

OHZ042-051>053-060>062-070>072-077>081-240600-
  SOUTHWEST OHIO

CITY           SKY/WX    TMP DP  RH WIND       PRES   REMARKS
CINC-COVINGTON CLEAR     57  42  57 E6        30.31S
CINC-LUNKEN    CLEAR     49  48  97 CALM      30.33R
HAMILTON       CLEAR     48  46  93 CALM      30.33S
DAYTON         CLEAR     54  44  69 E3        30.34S
WRIGHT-PAT AFB CLEAR     53  47  77 N1        30.34R
DAYTON GENERAL CLEAR     54  44  69 E6        30.32S
WILMINGTON     CLEAR     51  42  71 E5        30.33S
$$

OHZ036-037-039>041-045>050-054>059-063>069-073>076-082>088-240600-
  CENTRAL AND SOUTHEAST OHIO

CITY           SKY/WX    TMP DP  RH WIND       PRES   REMARKS
COLUMBUS       CLEAR     57  44  62 E7        30.34S
OSU AIRPORT    CLEAR     52  45  77 NE5       30.35S
BOLTON FIELD   CLEAR     55  45  70 E3        30.35S
RICKENBACK AFB CLEAR     48  43  83 E8        30.33S
NEWARK         CLEAR     45  42  89 CALM      30.35F FOG
MARION         CLEAR     48  43  82 CALM      30.36S
LANCASTER      CLEAR     44  42  93 CALM      30.35S
ZANESVILLE     CLEAR     50  44  80 CALM      30.36R
NEW PHILLY     CLEAR     47  45  93 CALM      30.38F
$$


USA.gov is the U.S. government's official web portal to all federal, state and local government web resources and services.